This is the latest recevied weather packets stored in our database for station/object M0OAB-1. If no packets are shown the sender has not sent any weather packets the latest 10 day(s).
| Time | Temp. | Humidity | Pressure | Rain* | Wind** | Luminosity | Snow |
|---|---|---|---|---|---|---|---|
| 1777551365 | 19.44° C | 38% | 1009.2 hPa | 0 mm | - | - | - |
| 1777550046 | 19.44° C | 40% | 1009.1 hPa | 0 mm | - | - | - |
| 1777549565 | 18.89° C | 41% | 1009.1 hPa | 0 mm | - | - | - |
| 1777549445 | 18.89° C | 41% | 1009 hPa | 0 mm | - | - | - |
| 1777548845 | 18.33° C | 40% | 1009.1 hPa | 0 mm | - | - | - |
| 1777548125 | 18.33° C | 40% | 1009.2 hPa | 0 mm | - | - | - |
| 1777547765 | 18.33° C | 40% | 1009.3 hPa | 0 mm | - | - | - |
| 1777545725 | 18.33° C | 42% | 1009.3 hPa | 0 mm | - | - | - |
| 1777545365 | 18.33° C | 41% | 1009.2 hPa | 0 mm | - | - | - |
| 1777544645 | 18.33° C | 41% | 1009.3 hPa | 0 mm | - | - | - |
| 1777543686 | 18.33° C | 41% | 1009.2 hPa | 0 mm | - | - | - |
| 1777543565 | 18.33° C | 42% | 1009.2 hPa | 0 mm | - | - | - |
| 1777542845 | 17.78° C | 41% | 1009.3 hPa | 0 mm | - | - | - |
| 1777542485 | 17.78° C | 41% | 1009.4 hPa | 0 mm | - | - | - |
| 1777542125 | 17.78° C | 42% | 1009.6 hPa | 0 mm | - | - | - |
| 1777542005 | 17.78° C | 41% | 1009.6 hPa | 0 mm | - | - | - |
| 1777541765 | 17.78° C | 42% | 1009.5 hPa | 0 mm | - | - | - |
| 1777540565 | 17.22° C | 49% | 1009.6 hPa | 0 mm | - | - | - |
| 1777540325 | 16.67° C | 46% | 1009.4 hPa | 0 mm | - | - | - |
| 1777539965 | 16.67° C | 47% | 1009.6 hPa | 0 mm | - | - | - |
| 1777539845 | 16.67° C | 47% | 1009.6 hPa | 0 mm | - | - | - |
| 1777539605 | 16.67° C | 47% | 1009.5 hPa | 0 mm | - | - | - |
| 1777539485 | 16.67° C | 46% | 1009.7 hPa | 0 mm | - | - | - |
| 1777535525 | 16.67° C | 50% | 1009.5 hPa | 0 mm | - | - | - |
| 1777534325 | 17.22° C | 48% | 1009.4 hPa | 0 mm | - | - | - |
* Rain latest hour (hover to see other rain measurements)
** Current wind speed in m/s (hover to see current wind gust speed)